CCA4580 ZUCK-ZSPD

Flight info

Callsign CCA4580
Flight time N/A
Altitude 37100
Route GUTVI3Z GUTVI B213 WHA R343 SASAN SAS82A
Aircraft A346/H-SDE2E3FGHIJ3J4J5M1RWXY/LB1D1

Departure

Time 2026-04-25 09:02
Airport Chongqing Jiangbei International Airport (ZUCK)

Arrival

Time N/A
Airport Shanghai Pudong International Airport (ZSPD)
Time Latitude Longitude Altitude Speed Heading
2026-04-25 08:25 29.73825 106.66379 1379 ft 0 kts 106°
2026-04-25 08:49 29.73826 106.66376 1379 ft 2 kts 107°
2026-04-25 08:49 29.73830 106.66360 1379 ft 2 kts 106°
2026-04-25 08:49 29.73835 106.66343 1379 ft 2 kts 107°
2026-04-25 08:50 29.73842 106.66326 1379 ft 2 kts 131°
2026-04-25 08:50 29.73854 106.66314 1379 ft 2 kts 154°
2026-04-25 08:50 29.73870 106.66309 1379 ft 2 kts 176°
2026-04-25 08:50 29.73884 106.66309 1379 ft 0 kts 195°
2026-04-25 08:51 29.73888 106.66311 1379 ft 0 kts 197°
2026-04-25 08:54 29.73875 106.66306 1379 ft 3 kts 197°
2026-04-25 08:54 29.73842 106.66295 1379 ft 6 kts 197°
2026-04-25 08:55 29.73790 106.66277 1379 ft 9 kts 197°
2026-04-25 08:55 29.73728 106.66260 1379 ft 8 kts 176°
2026-04-25 08:55 29.73680 106.66315 1379 ft 11 kts 108°
2026-04-25 08:55 29.73653 106.66413 1379 ft 13 kts 107°
2026-04-25 08:56 29.73624 106.66522 1379 ft 14 kts 107°
2026-04-25 08:56 29.73597 106.66629 1379 ft 10 kts 107°
2026-04-25 08:56 29.73551 106.66665 1379 ft 8 kts 187°
2026-04-25 08:56 29.73482 106.66649 1379 ft 11 kts 195°
2026-04-25 08:57 29.73399 106.66621 1379 ft 13 kts 197°
2026-04-25 08:57 29.73303 106.66589 1379 ft 14 kts 197°
2026-04-25 08:57 29.73198 106.66552 1379 ft 16 kts 197°
2026-04-25 08:57 29.73083 106.66512 1379 ft 17 kts 197°
2026-04-25 08:58 29.72965 106.66471 1379 ft 17 kts 197°
2026-04-25 08:58 29.72846 106.66430 1379 ft 18 kts 197°
2026-04-25 08:58 29.72720 106.66385 1379 ft 18 kts 197°
2026-04-25 08:58 29.72590 106.66341 1379 ft 19 kts 196°
2026-04-25 08:59 29.72459 106.66296 1379 ft 19 kts 197°
2026-04-25 08:59 29.72323 106.66249 1379 ft 20 kts 196°
2026-04-25 08:59 29.72184 106.66201 1379 ft 20 kts 196°
2026-04-25 08:59 29.72044 106.66153 1379 ft 21 kts 197°
2026-04-25 09:00 29.71902 106.66104 1379 ft 19 kts 197°
2026-04-25 09:00 29.71818 106.66080 1379 ft 10 kts 168°
2026-04-25 09:00 29.71768 106.66160 1379 ft 13 kts 108°
2026-04-25 09:00 29.71763 106.66251 1379 ft 11 kts 53°
2026-04-25 09:01 29.71807 106.66279 1379 ft 5 kts 18°
2026-04-25 09:01 29.71984 106.66342 1379 ft 63 kts 17°
2026-04-25 09:01 29.72678 106.66577 1379 ft 136 kts 17°
2026-04-25 09:01 29.73817 106.66983 1380 ft 196 kts 16°
2026-04-25 09:02 29.75245 106.67487 1749 ft 219 kts 18°
2026-04-25 09:02 29.76736 106.68031 2502 ft 223 kts 19°
2026-04-25 09:02 29.78176 106.68761 3309 ft 230 kts 27°
2026-04-25 09:02 29.79568 106.69846 3890 ft 246 kts 48°
2026-04-25 09:03 29.80369 106.71674 4424 ft 266 kts 78°
2026-04-25 09:03 29.80654 106.73863 4972 ft 275 kts 85°
2026-04-25 09:03 29.80850 106.76099 5488 ft 284 kts 85°
2026-04-25 09:03 29.81065 106.78397 6173 ft 286 kts 84°
2026-04-25 09:04 29.81304 106.80737 6887 ft 288 kts 84°
2026-04-25 09:04 29.81558 106.83038 7539 ft 291 kts 84°
2026-04-25 09:04 29.81830 106.85410 8240 ft 293 kts 83°
2026-04-25 09:04 29.82109 106.87798 8908 ft 296 kts 83°
2026-04-25 09:05 29.82390 106.90175 9552 ft 299 kts 83°
2026-04-25 09:05 29.82678 106.92612 10201 ft 302 kts 83°
2026-04-25 09:05 29.82972 106.95096 10604 ft 315 kts 83°
2026-04-25 09:05 29.83282 106.97712 10891 ft 330 kts 83°
2026-04-25 09:06 29.83606 107.00427 11245 ft 343 kts 83°
2026-04-25 09:06 29.83938 107.03203 11793 ft 349 kts 83°
2026-04-25 09:06 29.84282 107.06100 12135 ft 365 kts 83°
2026-04-25 09:06 29.84635 107.09072 12433 ft 382 kts 83°
2026-04-25 09:07 29.85008 107.12217 12762 ft 397 kts 83°
2026-04-25 09:07 29.85394 107.15470 13369 ft 405 kts 83°
2026-04-25 09:07 29.85784 107.18762 14150 ft 408 kts 83°
2026-04-25 09:07 29.86178 107.22100 14932 ft 412 kts 83°
2026-04-25 09:08 29.86566 107.25401 15673 ft 416 kts 83°
2026-04-25 09:08 29.86960 107.28762 16407 ft 420 kts 83°
2026-04-25 09:08 29.87361 107.32185 17127 ft 425 kts 83°
2026-04-25 09:08 29.87762 107.35627 17816 ft 429 kts 83°
2026-04-25 09:09 29.88160 107.39041 18473 ft 433 kts 83°
2026-04-25 09:09 29.88566 107.42538 19121 ft 438 kts 83°
2026-04-25 09:09 29.88979 107.46103 19757 ft 442 kts 83°
2026-04-25 09:09 29.89394 107.49686 20373 ft 446 kts 83°
2026-04-25 09:10 29.89814 107.53317 20976 ft 451 kts 83°
2026-04-25 09:10 29.90238 107.56988 21560 ft 455 kts 83°
2026-04-25 09:10 29.90660 107.60662 22128 ft 459 kts 83°
2026-04-25 09:10 29.91090 107.64413 22697 ft 463 kts 83°
2026-04-25 09:11 29.91952 107.71958 23756 ft 472 kts 83°
2026-04-25 09:11 29.92382 107.75753 24273 ft 476 kts 83°
2026-04-25 09:11 29.92869 107.79620 24781 ft 480 kts 81°
2026-04-25 09:12 29.93530 107.83487 25275 ft 484 kts 78°
2026-04-25 09:12 29.94388 107.87344 25760 ft 488 kts 75°
2026-04-25 09:12 29.95326 107.91109 26224 ft 492 kts 74°
2026-04-25 09:12 29.96309 107.94968 26688 ft 496 kts 74°
2026-04-25 09:13 29.97302 107.98855 27150 ft 499 kts 74°
2026-04-25 09:13 29.98306 108.02807 27596 ft 503 kts 74°
2026-04-25 09:13 29.99310 108.06776 28048 ft 506 kts 74°
2026-04-25 09:13 30.00313 108.10759 28646 ft 505 kts 74°
2026-04-25 09:14 30.01302 108.14690 29286 ft 504 kts 74°
2026-04-25 09:14 30.02292 108.18639 29898 ft 502 kts 74°
2026-04-25 09:14 30.03269 108.22539 30483 ft 501 kts 73°
2026-04-25 09:14 30.04253 108.26466 31044 ft 501 kts 74°
2026-04-25 09:15 30.05237 108.30407 31579 ft 500 kts 73°
2026-04-25 09:15 30.06209 108.34302 32111 ft 499 kts 73°
2026-04-25 09:15 30.07179 108.38195 32627 ft 499 kts 73°
2026-04-25 09:15 30.08148 108.42095 33124 ft 498 kts 73°
2026-04-25 09:16 30.09107 108.45953 33601 ft 498 kts 73°
2026-04-25 09:16 30.10083 108.49883 34076 ft 497 kts 73°